RYR3HC EBCI-LPFR

Flight info

Callsign RYR3HC
Flight time 2h 35m
Altitude 31000
Route CIV N872 LESDO DCT KOVIN/N0454F370 DCT NIDUV DCT KIHVI UN872 ERIGA UZ218 FUJTI DCT PEPET DCT BAKUP DCT BATAX DCT SOTEX
Aircraft B38M/M-SDE1FGHILORVWXY/HB1

Departure

Time 2026-05-07 11:56
Airport Brussels South Charleroi Airport (EBCI)

Arrival

Time 2026-05-07 14:31
Airport Faro - Gago Coutinho International Airport (LPFR)
Time Latitude Longitude Altitude Speed Heading
2026-05-07 11:03 50.46836 4.46989 587 ft 0 kts 336°
2026-05-07 11:39 50.46835 4.46989 587 ft 0 kts 336°
2026-05-07 11:46 50.46831 4.46992 587 ft 2 kts 336°
2026-05-07 11:46 50.46816 4.47003 587 ft 2 kts 336°
2026-05-07 11:46 50.46799 4.47011 587 ft 3 kts
2026-05-07 11:47 50.46784 4.47001 587 ft 3 kts 51°
2026-05-07 11:47 50.46775 4.46977 588 ft 2 kts 65°
2026-05-07 11:47 50.46772 4.46968 588 ft 0 kts 65°
2026-05-07 11:51 50.46778 4.46989 588 ft 5 kts 65°
2026-05-07 11:51 50.46779 4.47014 588 ft 2 kts 112°
2026-05-07 11:51 50.46772 4.47027 589 ft 3 kts 139°
2026-05-07 11:52 50.46759 4.47076 591 ft 7 kts 76°
2026-05-07 11:52 50.46791 4.47183 591 ft 15 kts 65°
2026-05-07 11:52 50.46824 4.47308 590 ft 6 kts 83°
2026-05-07 11:52 50.46808 4.47345 591 ft 4 kts 148°
2026-05-07 11:53 50.46780 4.47368 591 ft 5 kts 154°
2026-05-07 11:53 50.46745 4.47394 593 ft 6 kts 155°
2026-05-07 11:53 50.46700 4.47426 595 ft 8 kts 155°
2026-05-07 11:53 50.46642 4.47463 598 ft 10 kts 168°
2026-05-07 11:54 50.46606 4.47423 599 ft 0 kts 244°
2026-05-07 11:55 50.46605 4.47418 599 ft 2 kts 244°
2026-05-07 11:55 50.46580 4.47335 599 ft 29 kts 246°
2026-05-07 11:55 50.46388 4.46657 593 ft 105 kts 245°
2026-05-07 11:55 50.45990 4.45310 600 ft 164 kts 244°
2026-05-07 11:56 50.45461 4.43577 1055 ft 186 kts 245°
2026-05-07 11:56 50.44892 4.41697 1866 ft 193 kts 245°
2026-05-07 11:56 50.44322 4.39734 2570 ft 207 kts 246°
2026-05-07 11:56 50.43708 4.37522 2933 ft 238 kts 246°
2026-05-07 11:57 50.43012 4.35024 3519 ft 259 kts 246°
2026-05-07 11:57 50.42265 4.32373 4353 ft 266 kts 246°
2026-05-07 11:57 50.41509 4.29717 5404 ft 266 kts 246°
2026-05-07 11:57 50.40747 4.27049 6367 ft 269 kts 245°
2026-05-07 11:58 50.39988 4.24401 7249 ft 270 kts 245°
2026-05-07 11:58 50.39433 4.21566 8087 ft 274 kts 262°
2026-05-07 11:58 50.39165 4.18586 8988 ft 277 kts 261°
2026-05-07 11:58 50.38878 4.15565 9793 ft 282 kts 261°
2026-05-07 11:59 50.38589 4.12524 10466 ft 291 kts 261°
2026-05-07 11:59 50.38280 4.09288 10804 ft 311 kts 261°
2026-05-07 11:59 50.37951 4.05843 11191 ft 327 kts 261°
2026-05-07 11:59 50.37607 4.02255 11814 ft 333 kts 261°
2026-05-07 12:00 50.37260 3.98650 12600 ft 336 kts 261°
2026-05-07 12:00 50.36908 3.95004 13362 ft 340 kts 261°
2026-05-07 12:00 50.36554 3.91346 14076 ft 344 kts 261°
2026-05-07 12:00 50.36192 3.87624 14750 ft 347 kts 261°
2026-05-07 12:01 50.35824 3.83854 15439 ft 350 kts 261°
2026-05-07 12:01 50.35457 3.80104 16101 ft 354 kts 261°
2026-05-07 12:01 50.35079 3.76258 16776 ft 357 kts 261°
2026-05-07 12:01 50.34618 3.72423 17413 ft 360 kts 252°
2026-05-07 12:02 50.33478 3.68948 18073 ft 362 kts 232°
2026-05-07 12:02 50.31658 3.66255 18630 ft 367 kts 214°
2026-05-07 12:02 50.29383 3.64416 19170 ft 370 kts 206°
2026-05-07 12:02 50.27018 3.62730 19687 ft 374 kts 205°
2026-05-07 12:03 50.24626 3.61066 20229 ft 377 kts 205°
2026-05-07 12:03 50.22241 3.59434 20754 ft 380 kts 204°
2026-05-07 12:03 50.19802 3.57782 21282 ft 382 kts 204°
2026-05-07 12:03 50.17349 3.56129 21791 ft 385 kts 204°
2026-05-07 12:04 50.14872 3.54466 22303 ft 388 kts 204°
2026-05-07 12:04 50.12376 3.52791 22792 ft 392 kts 204°
2026-05-07 12:04 50.09855 3.51103 23290 ft 395 kts 204°
2026-05-07 12:04 50.07361 3.49435 23845 ft 394 kts 204°
2026-05-07 12:05 50.04833 3.47745 24352 ft 394 kts 204°
2026-05-07 12:05 50.02306 3.46059 24872 ft 392 kts 204°
2026-05-07 12:05 49.99823 3.44403 25705 ft 382 kts 204°
2026-05-07 12:05 49.97436 3.42814 26522 ft 371 kts 204°
2026-05-07 12:06 49.95087 3.41251 27214 ft 365 kts 204°
2026-05-07 12:06 49.92749 3.39698 27717 ft 363 kts 205°
2026-05-07 12:06 49.90418 3.38150 28099 ft 364 kts 205°
2026-05-07 12:06 49.88118 3.36625 28471 ft 364 kts 205°
2026-05-07 12:07 49.85769 3.35069 28710 ft 370 kts 205°
2026-05-07 12:07 49.83348 3.33467 28644 ft 382 kts 204°
2026-05-07 12:07 49.80894 3.31845 28661 ft 392 kts 204°
2026-05-07 12:07 49.78337 3.30155 28681 ft 403 kts 204°
2026-05-07 12:08 49.75728 3.28433 28711 ft 412 kts 204°
2026-05-07 12:08 49.70355 3.24894 28849 ft 428 kts 204°
2026-05-07 12:08 49.67600 3.23083 29229 ft 430 kts 204°
2026-05-07 12:09 49.64837 3.21268 29512 ft 433 kts 204°
2026-05-07 12:09 49.62054 3.19443 29856 ft 434 kts 204°
2026-05-07 12:09 49.59263 3.17614 30159 ft 436 kts 204°
2026-05-07 12:09 49.56460 3.15780 30484 ft 437 kts 204°
2026-05-07 12:10 49.53698 3.13975 30871 ft 435 kts 204°
2026-05-07 12:10 49.50896 3.12145 31074 ft 436 kts 204°
2026-05-07 12:10 49.48155 3.10205 31043 ft 430 kts 213°
2026-05-07 12:11 49.43198 3.05145 31047 ft 430 kts 214°
2026-05-07 12:11 49.38196 3.00075 31070 ft 430 kts 215°
2026-05-07 12:12 49.33222 2.95037 31067 ft 430 kts 214°
2026-05-07 12:12 49.28224 2.89986 31070 ft 430 kts 214°
2026-05-07 12:13 49.23215 2.84936 31066 ft 431 kts 214°
2026-05-07 12:13 49.18223 2.79916 31068 ft 431 kts 214°
2026-05-07 12:14 49.13192 2.74870 31069 ft 431 kts 214°
2026-05-07 12:14 49.08206 2.69880 31074 ft 431 kts 214°
2026-05-07 12:15 49.03178 2.64861 31063 ft 431 kts 214°
2026-05-07 12:15 48.98152 2.59854 31071 ft 430 kts 214°
2026-05-07 12:16 48.93162 2.54898 31077 ft 430 kts 214°
2026-05-07 12:16 48.88161 2.49942 31046 ft 430 kts 214°
2026-05-07 12:17 48.83131 2.44969 31045 ft 430 kts 214°
2026-05-07 12:17 48.78138 2.40046 31050 ft 430 kts 214°
2026-05-07 12:18 48.73136 2.35125 31045 ft 430 kts 214°
2026-05-07 12:18 48.68111 2.30192 31047 ft 430 kts 214°
2026-05-07 12:19 48.63104 2.25290 31049 ft 429 kts 214°
2026-05-07 12:19 48.58046 2.20397 31047 ft 431 kts 210°
2026-05-07 12:19 48.55281 2.18801 31035 ft 432 kts 194°
2026-05-07 12:20 48.52336 2.17829 31041 ft 434 kts 194°
2026-05-07 12:20 48.46464 2.15845 31057 ft 434 kts 194°
2026-05-07 12:21 48.40531 2.13920 31032 ft 433 kts 194°
2026-05-07 12:21 48.34655 2.12028 31048 ft 433 kts 193°
2026-05-07 12:22 48.28752 2.10315 31027 ft 434 kts 184°
2026-05-07 12:22 48.25728 2.10647 31064 ft 436 kts 173°
2026-05-07 12:22 48.22710 2.11254 31029 ft 438 kts 174°
2026-05-07 12:23 48.16695 2.12466 31045 ft 438 kts 174°
2026-05-07 12:23 48.10658 2.12586 31067 ft 432 kts 190°
2026-05-07 12:24 48.04681 2.11489 31047 ft 434 kts 189°
2026-05-07 12:24 47.98671 2.10352 31048 ft 434 kts 189°
2026-05-07 12:25 47.92695 2.09211 31048 ft 433 kts 189°
2026-05-07 12:25 47.86728 2.08074 31047 ft 433 kts 189°
2026-05-07 12:26 47.80736 2.06934 31038 ft 433 kts 189°
2026-05-07 12:26 47.74767 2.05801 31031 ft 432 kts 189°
2026-05-07 12:27 47.68805 2.04672 31033 ft 432 kts 189°
2026-05-07 12:27 47.62860 2.03300 31009 ft 429 kts 200°
2026-05-07 12:28 47.57327 2.00114 30994 ft 429 kts 202°
2026-05-07 12:28 47.51761 1.96918 31032 ft 428 kts 203°
2026-05-07 12:29 47.46235 1.93724 31038 ft 428 kts 203°
2026-05-07 12:29 47.40704 1.90532 31033 ft 427 kts 203°
2026-05-07 12:30 47.35144 1.87330 31007 ft 427 kts 203°
2026-05-07 12:30 47.29636 1.84166 31073 ft 427 kts 203°
2026-05-07 12:31 47.24121 1.81004 31032 ft 426 kts 203°
2026-05-07 12:31 47.18572 1.77852 31043 ft 426 kts 203°
2026-05-07 12:32 47.13067 1.74747 31035 ft 425 kts 203°
2026-05-07 12:32 47.07528 1.71630 31054 ft 425 kts 203°
2026-05-07 12:33 46.99244 1.66980 31046 ft 425 kts 203°
2026-05-07 12:33 46.93742 1.63899 31046 ft 425 kts 203°
2026-05-07 12:34 46.88207 1.60808 31040 ft 424 kts 202°
2026-05-07 12:34 46.82725 1.57753 31054 ft 424 kts 202°
2026-05-07 12:35 46.77200 1.54680 31064 ft 424 kts 202°
2026-05-07 12:35 46.71696 1.51626 31026 ft 424 kts 202°
2026-05-07 12:36 46.66163 1.48563 31035 ft 424 kts 202°
2026-05-07 12:36 46.60666 1.45527 31023 ft 424 kts 202°
2026-05-07 12:37 46.55170 1.42496 31006 ft 424 kts 203°
2026-05-07 12:37 46.49643 1.39456 31015 ft 423 kts 203°
2026-05-07 12:38 46.44153 1.36443 31010 ft 423 kts 203°
2026-05-07 12:38 46.38656 1.33432 31008 ft 423 kts 203°
2026-05-07 12:39 46.33145 1.30420 31009 ft 422 kts 203°
2026-05-07 12:39 46.27671 1.27436 31005 ft 422 kts 203°
2026-05-07 12:40 46.23081 1.24937 31004 ft 422 kts 203°
2026-05-07 12:40 46.17590 1.21955 31004 ft 422 kts 203°
2026-05-07 12:41 46.12079 1.18968 31012 ft 421 kts 202°
2026-05-07 12:41 46.05716 1.15528 31014 ft 421 kts 202°
2026-05-07 12:42 46.01144 1.13060 31016 ft 421 kts 202°
2026-05-07 12:42 45.95682 1.10118 31010 ft 420 kts 202°
2026-05-07 12:43 45.90199 1.07170 31018 ft 419 kts 202°
2026-05-07 12:43 45.84717 1.04229 31017 ft 419 kts 202°
2026-05-07 12:44 45.79749 1.00170 31034 ft 414 kts 221°
2026-05-07 12:44 45.75280 0.94939 31014 ft 416 kts 220°
2026-05-07 12:45 45.70815 0.89637 31001 ft 415 kts 220°
2026-05-07 12:45 45.66407 0.84377 31005 ft 415 kts 220°
2026-05-07 12:46 45.61953 0.79071 31006 ft 415 kts 220°
2026-05-07 12:46 45.57534 0.73816 30996 ft 415 kts 220°
2026-05-07 12:47 45.53081 0.68532 30997 ft 414 kts 220°
2026-05-07 12:47 45.48658 0.63296 30999 ft 415 kts 220°
2026-05-07 12:48 45.44230 0.58064 30995 ft 414 kts 220°
2026-05-07 12:48 45.39799 0.52839 30993 ft 414 kts 220°
2026-05-07 12:49 45.35338 0.47591 30997 ft 414 kts 220°
2026-05-07 12:49 45.30900 0.42381 30992 ft 414 kts 220°
2026-05-07 12:50 45.26452 0.37170 31004 ft 414 kts 220°
2026-05-07 12:50 45.22020 0.31987 30996 ft 414 kts 219°
2026-05-07 12:51 45.17585 0.26814 30991 ft 413 kts 219°
2026-05-07 12:51 45.13135 0.21633 30990 ft 413 kts 219°
2026-05-07 12:52 45.08716 0.16496 30993 ft 413 kts 219°
2026-05-07 12:52 45.04266 0.11336 30990 ft 413 kts 219°
2026-05-07 12:53 44.99840 0.06217 30989 ft 413 kts 219°
2026-05-07 12:53 44.95385 0.01073 30985 ft 412 kts 219°
2026-05-07 12:54 44.90939 -0.04049 30986 ft 412 kts 219°
2026-05-07 12:54 44.86515 -0.09136 30986 ft 411 kts 219°
2026-05-07 12:55 44.82067 -0.14241 30984 ft 411 kts 219°
2026-05-07 12:55 44.77632 -0.19319 30986 ft 411 kts 219°
2026-05-07 12:56 44.73203 -0.24380 30981 ft 411 kts 219°
2026-05-07 12:56 44.68766 -0.29440 30992 ft 412 kts 219°
2026-05-07 12:57 44.64256 -0.34404 30967 ft 411 kts 213°
2026-05-07 12:57 44.59529 -0.38886 30971 ft 411 kts 214°
2026-05-07 12:58 44.54829 -0.43417 30975 ft 411 kts 214°
2026-05-07 12:58 44.50122 -0.47961 30965 ft 411 kts 214°
2026-05-07 12:59 44.45399 -0.52512 30965 ft 411 kts 214°
2026-05-07 12:59 44.40699 -0.57032 30957 ft 411 kts 214°
2026-05-07 13:00 44.36001 -0.61542 30959 ft 410 kts 214°
2026-05-07 13:00 44.31277 -0.66068 30960 ft 410 kts 214°
2026-05-07 13:01 44.26636 -0.70634 30960 ft 410 kts 216°
2026-05-07 13:01 44.22059 -0.75329 30954 ft 410 kts 216°
2026-05-07 13:02 44.17443 -0.80036 30957 ft 409 kts 216°
2026-05-07 13:02 44.12866 -0.84692 30961 ft 409 kts 216°
2026-05-07 13:03 44.08249 -0.89378 30961 ft 409 kts 216°
2026-05-07 13:03 44.03675 -0.94013 30954 ft 409 kts 216°
2026-05-07 13:04 43.99084 -0.98655 30954 ft 408 kts 216°
2026-05-07 13:04 43.94468 -1.03313 30965 ft 408 kts 216°
2026-05-07 13:05 43.89885 -1.07929 30968 ft 408 kts 216°
2026-05-07 13:05 43.85300 -1.12538 30960 ft 408 kts 216°
2026-05-07 13:06 43.80696 -1.17157 30963 ft 407 kts 215°
2026-05-07 13:06 43.76111 -1.21748 30963 ft 407 kts 215°
2026-05-07 13:07 43.71511 -1.26346 30963 ft 407 kts 215°
2026-05-07 13:07 43.66932 -1.30914 30958 ft 407 kts 215°
2026-05-07 13:08 43.62326 -1.35499 30949 ft 407 kts 215°
2026-05-07 13:08 43.57751 -1.40045 30937 ft 408 kts 215°
2026-05-07 13:09 43.53133 -1.44626 30938 ft 408 kts 215°
2026-05-07 13:09 43.48542 -1.49173 30938 ft 407 kts 216°
2026-05-07 13:10 43.46449 -1.51799 30919 ft 408 kts 231°
2026-05-07 13:10 43.44831 -1.55034 30944 ft 410 kts 233°
2026-05-07 13:10 43.41620 -1.61485 30930 ft 411 kts 234°
2026-05-07 13:11 43.38436 -1.68001 30936 ft 411 kts 234°
2026-05-07 13:11 43.35252 -1.74544 30911 ft 411 kts 234°
2026-05-07 13:12 43.32092 -1.81040 30904 ft 411 kts 234°
2026-05-07 13:12 43.28669 -1.87353 30914 ft 410 kts 231°
2026-05-07 13:13 43.25238 -1.93558 30932 ft 411 kts 231°
2026-05-07 13:13 43.21782 -1.99823 30920 ft 410 kts 231°
2026-05-07 13:14 43.18348 -2.06037 30922 ft 410 kts 231°
2026-05-07 13:14 43.14894 -2.12274 30919 ft 410 kts 231°
2026-05-07 13:15 43.11453 -2.18476 30915 ft 409 kts 231°
2026-05-07 13:15 43.07992 -2.24697 30920 ft 409 kts 231°
2026-05-07 13:16 43.04560 -2.30855 30922 ft 410 kts 230°
2026-05-07 13:16 43.01080 -2.37086 30915 ft 411 kts 230°
2026-05-07 13:17 42.97616 -2.43276 30886 ft 413 kts 230°
2026-05-07 13:17 42.94113 -2.49522 30913 ft 413 kts 230°
2026-05-07 13:18 42.90625 -2.55729 30910 ft 413 kts 230°
2026-05-07 13:18 42.87122 -2.61949 30937 ft 413 kts 230°
2026-05-07 13:19 42.83632 -2.68133 30949 ft 413 kts 230°
2026-05-07 13:19 42.80126 -2.74333 30943 ft 414 kts 230°
2026-05-07 13:20 42.76597 -2.80562 30935 ft 414 kts 230°
2026-05-07 13:20 42.73101 -2.86746 30909 ft 414 kts 231°
2026-05-07 13:21 42.69621 -2.93021 30913 ft 414 kts 231°
2026-05-07 13:21 42.66150 -2.99258 30914 ft 414 kts 230°
2026-05-07 13:22 42.62680 -3.05479 30915 ft 414 kts 230°
2026-05-07 13:22 42.59175 -3.11750 30908 ft 415 kts 230°
2026-05-07 13:23 42.55699 -3.17955 30908 ft 416 kts 230°
2026-05-07 13:23 42.52172 -3.24240 30910 ft 417 kts 230°
2026-05-07 13:24 42.48664 -3.30477 30916 ft 417 kts 230°
2026-05-07 13:24 42.45154 -3.36703 30919 ft 417 kts 230°
2026-05-07 13:25 42.41629 -3.42946 30914 ft 416 kts 230°
2026-05-07 13:25 42.38131 -3.49126 30915 ft 414 kts 230°
2026-05-07 13:26 42.34618 -3.55319 30903 ft 415 kts 230°
2026-05-07 13:26 42.31076 -3.61551 30912 ft 418 kts 230°
2026-05-07 13:27 42.27552 -3.67739 30909 ft 417 kts 230°
2026-05-07 13:27 42.24003 -3.73959 30906 ft 417 kts 230°
2026-05-07 13:28 42.20473 -3.80131 30898 ft 417 kts 230°
2026-05-07 13:28 42.16913 -3.86344 30896 ft 417 kts 231°
2026-05-07 13:29 42.13381 -3.92495 30893 ft 417 kts 231°
2026-05-07 13:29 42.10418 -3.97645 30895 ft 418 kts 231°
2026-05-07 13:30 42.06838 -4.03859 30897 ft 419 kts 231°
2026-05-07 13:30 42.05069 -4.06925 31010 ft 420 kts 231°
2026-05-07 13:30 42.03271 -4.10028 31357 ft 420 kts 229°
2026-05-07 13:31 42.01177 -4.12785 31627 ft 420 kts 219°
2026-05-07 13:31 41.98973 -4.15342 31866 ft 423 kts 221°
2026-05-07 13:31 41.96750 -4.17964 32133 ft 425 kts 221°
2026-05-07 13:31 41.94518 -4.20585 32412 ft 427 kts 221°
2026-05-07 13:32 41.92294 -4.23190 32680 ft 428 kts 221°
2026-05-07 13:32 41.90030 -4.25838 32932 ft 430 kts 221°
2026-05-07 13:32 41.87757 -4.28493 33139 ft 433 kts 221°
2026-05-07 13:32 41.85503 -4.31123 33443 ft 434 kts 221°
2026-05-07 13:33 41.83214 -4.33792 33748 ft 435 kts 221°
2026-05-07 13:33 41.80950 -4.36430 34016 ft 435 kts 221°
2026-05-07 13:33 41.78651 -4.39104 34257 ft 436 kts 221°
2026-05-07 13:33 41.76352 -4.41777 34495 ft 437 kts 221°
2026-05-07 13:34 41.74077 -4.44420 34736 ft 437 kts 221°
2026-05-07 13:34 41.69462 -4.49772 35225 ft 438 kts 221°
2026-05-07 13:34 41.67151 -4.52449 35455 ft 439 kts 222°
2026-05-07 13:35 41.64859 -4.55099 35658 ft 440 kts 222°
2026-05-07 13:35 41.62546 -4.57772 35916 ft 440 kts 222°
2026-05-07 13:35 41.60226 -4.60451 36087 ft 442 kts 223°
2026-05-07 13:35 41.57889 -4.63147 36278 ft 442 kts 222°
2026-05-07 13:36 41.55553 -4.65839 36518 ft 442 kts 222°
2026-05-07 13:36 41.53217 -4.68529 36741 ft 443 kts 222°
2026-05-07 13:36 41.50907 -4.71185 36906 ft 443 kts 222°
2026-05-07 13:37 41.46223 -4.76563 36882 ft 442 kts 223°
2026-05-07 13:37 41.41580 -4.81886 36893 ft 443 kts 222°
2026-05-07 13:38 41.36900 -4.87238 36893 ft 442 kts 222°
2026-05-07 13:38 41.32243 -4.92557 36886 ft 442 kts 222°
2026-05-07 13:39 41.27555 -4.97896 36886 ft 443 kts 223°
2026-05-07 13:39 41.22889 -5.03197 36877 ft 443 kts 223°
2026-05-07 13:40 41.18199 -5.08516 36887 ft 443 kts 223°
2026-05-07 13:40 41.13506 -5.13829 36892 ft 443 kts 223°
2026-05-07 13:41 41.08833 -5.19108 36888 ft 443 kts 223°
2026-05-07 13:41 41.04150 -5.24388 36886 ft 443 kts 223°
2026-05-07 13:42 40.99438 -5.29692 36875 ft 443 kts 223°
2026-05-07 13:42 40.94765 -5.34940 36874 ft 442 kts 224°
2026-05-07 13:43 40.90062 -5.40212 36879 ft 442 kts 224°
2026-05-07 13:43 40.85382 -5.45448 36881 ft 442 kts 224°
2026-05-07 13:44 40.80700 -5.50677 36892 ft 442 kts 224°
2026-05-07 13:44 40.75997 -5.55920 36879 ft 441 kts 224°
2026-05-07 13:45 40.71293 -5.61152 36887 ft 441 kts 224°
2026-05-07 13:45 40.66621 -5.66339 36892 ft 441 kts 224°
2026-05-07 13:46 40.61914 -5.71555 36870 ft 441 kts 225°
2026-05-07 13:46 40.57259 -5.76707 36878 ft 438 kts 225°
2026-05-07 13:47 40.52608 -5.81842 36880 ft 438 kts 225°
2026-05-07 13:47 40.47930 -5.86997 36884 ft 438 kts 225°
2026-05-07 13:48 40.43277 -5.92117 36882 ft 438 kts 225°
2026-05-07 13:48 40.38593 -5.97262 36879 ft 438 kts 225°
2026-05-07 13:49 40.33939 -6.02364 36877 ft 438 kts 225°
2026-05-07 13:49 40.29248 -6.07496 36875 ft 436 kts 225°
2026-05-07 13:50 40.24630 -6.12539 36872 ft 432 kts 226°
2026-05-07 13:50 40.20006 -6.17580 36871 ft 431 kts 226°
2026-05-07 13:51 40.15405 -6.22586 36865 ft 432 kts 226°
2026-05-07 13:51 40.10778 -6.27612 36869 ft 432 kts 226°
2026-05-07 13:52 40.06152 -6.32628 36860 ft 429 kts 226°
2026-05-07 13:52 40.01586 -6.37569 36862 ft 427 kts 226°
2026-05-07 13:53 39.97004 -6.42518 36863 ft 427 kts 226°
2026-05-07 13:53 39.92445 -6.47433 36863 ft 426 kts 226°
2026-05-07 13:54 39.87920 -6.52303 36846 ft 421 kts 226°
2026-05-07 13:54 39.83381 -6.57180 36844 ft 421 kts 226°
2026-05-07 13:55 39.78876 -6.62012 36855 ft 420 kts 226°
2026-05-07 13:55 39.74370 -6.66834 36856 ft 420 kts 226°
2026-05-07 13:56 39.69848 -6.71666 36861 ft 420 kts 226°
2026-05-07 13:56 39.65325 -6.76490 36855 ft 420 kts 226°
2026-05-07 13:57 39.60819 -6.81288 36853 ft 420 kts 226°
2026-05-07 13:57 39.56289 -6.86102 36843 ft 420 kts 226°
2026-05-07 13:58 39.51767 -6.90900 36853 ft 421 kts 226°
2026-05-07 13:58 39.47258 -6.95675 36862 ft 420 kts 226°
2026-05-07 13:59 39.42705 -7.00488 36855 ft 420 kts 225°
2026-05-07 13:59 39.38186 -7.05258 36855 ft 421 kts 225°
2026-05-07 14:00 39.33640 -7.10048 36845 ft 420 kts 225°
2026-05-07 14:00 39.29141 -7.14781 36860 ft 420 kts 225°
2026-05-07 14:01 39.24605 -7.19545 36863 ft 419 kts 225°
2026-05-07 14:01 39.22201 -7.21730 36829 ft 428 kts 213°
2026-05-07 14:01 39.19371 -7.23082 36859 ft 437 kts 203°
2026-05-07 14:02 39.13521 -7.25255 36855 ft 440 kts 203°
2026-05-07 14:02 39.07606 -7.27361 36847 ft 439 kts 202°
2026-05-07 14:03 39.01742 -7.29415 36855 ft 439 kts 202°
2026-05-07 14:03 38.95846 -7.31474 36833 ft 438 kts 202°
2026-05-07 14:03 38.92912 -7.32498 36216 ft 436 kts 203°
2026-05-07 14:04 38.89978 -7.33521 35508 ft 437 kts 203°
2026-05-07 14:04 38.87048 -7.34541 34936 ft 434 kts 204°
2026-05-07 14:04 38.84188 -7.35535 34508 ft 429 kts 204°
2026-05-07 14:04 38.81322 -7.36531 34032 ft 425 kts 204°
2026-05-07 14:05 38.78469 -7.37521 33461 ft 423 kts 204°
2026-05-07 14:05 38.75628 -7.38506 32884 ft 420 kts 204°
2026-05-07 14:05 38.72810 -7.39483 32427 ft 416 kts 204°
2026-05-07 14:05 38.70035 -7.40444 32021 ft 411 kts 203°
2026-05-07 14:06 38.67287 -7.41396 31559 ft 407 kts 203°
2026-05-07 14:06 38.64589 -7.42329 31029 ft 406 kts 203°
2026-05-07 14:06 38.61855 -7.43274 30550 ft 404 kts 202°
2026-05-07 14:06 38.59144 -7.44210 30068 ft 402 kts 202°
2026-05-07 14:07 38.56474 -7.45131 29550 ft 400 kts 202°
2026-05-07 14:07 38.53793 -7.46056 29040 ft 397 kts 202°
2026-05-07 14:07 38.51122 -7.46976 28573 ft 394 kts 202°
2026-05-07 14:07 38.48480 -7.47886 28121 ft 391 kts 202°
2026-05-07 14:08 38.45884 -7.48779 27675 ft 388 kts 202°
2026-05-07 14:08 38.43274 -7.49676 27227 ft 386 kts 202°
2026-05-07 14:08 38.40683 -7.50566 26765 ft 383 kts 201°
2026-05-07 14:08 38.38144 -7.51437 26343 ft 380 kts 201°
2026-05-07 14:09 38.35590 -7.52314 25930 ft 378 kts 201°
2026-05-07 14:09 38.33044 -7.53186 25518 ft 376 kts 201°
2026-05-07 14:09 38.30521 -7.54051 25111 ft 374 kts 201°
2026-05-07 14:09 38.28041 -7.54899 24689 ft 373 kts 201°
2026-05-07 14:10 38.25537 -7.55756 24291 ft 371 kts 201°
2026-05-07 14:10 38.23041 -7.56609 23894 ft 370 kts 200°
2026-05-07 14:10 38.20537 -7.57464 23493 ft 369 kts 200°
2026-05-07 14:10 38.18080 -7.58303 23030 ft 368 kts 200°
2026-05-07 14:11 38.15613 -7.59144 22622 ft 366 kts 200°
2026-05-07 14:11 38.13161 -7.59980 22237 ft 363 kts 200°
2026-05-07 14:11 38.10723 -7.60810 21852 ft 361 kts 200°
2026-05-07 14:11 38.08300 -7.61635 21428 ft 359 kts 199°
2026-05-07 14:12 38.05915 -7.62447 21041 ft 357 kts 199°
2026-05-07 14:12 38.03513 -7.63264 20709 ft 353 kts 199°
2026-05-07 14:12 38.01172 -7.64059 20358 ft 351 kts 199°
2026-05-07 14:12 37.98815 -7.64860 19987 ft 349 kts 199°
2026-05-07 14:13 37.96471 -7.65656 19609 ft 347 kts 199°
2026-05-07 14:13 37.94170 -7.66436 19256 ft 345 kts 199°
2026-05-07 14:13 37.91848 -7.67224 18887 ft 343 kts 199°
2026-05-07 14:13 37.89541 -7.68005 18535 ft 341 kts 199°
2026-05-07 14:14 37.87253 -7.68780 18173 ft 339 kts 199°
2026-05-07 14:14 37.85004 -7.69540 17780 ft 337 kts 199°
2026-05-07 14:14 37.82743 -7.70304 17409 ft 335 kts 198°
2026-05-07 14:14 37.80489 -7.71066 17051 ft 332 kts 198°
2026-05-07 14:15 37.78295 -7.71807 16714 ft 329 kts 198°
2026-05-07 14:15 37.76094 -7.72550 16363 ft 326 kts 198°
2026-05-07 14:15 37.73894 -7.73292 16018 ft 324 kts 198°
2026-05-07 14:15 37.71719 -7.74025 15675 ft 322 kts 197°
2026-05-07 14:16 37.69587 -7.74743 15335 ft 319 kts 197°
2026-05-07 14:16 37.67438 -7.75467 15001 ft 317 kts 197°
2026-05-07 14:16 37.65305 -7.76185 14672 ft 315 kts 197°
2026-05-07 14:16 37.63213 -7.76888 14349 ft 313 kts 197°
2026-05-07 14:17 37.61107 -7.77597 14019 ft 312 kts 197°
2026-05-07 14:17 37.59005 -7.78302 13677 ft 311 kts 197°
2026-05-07 14:17 37.56911 -7.79007 13303 ft 310 kts 196°
2026-05-07 14:17 37.54860 -7.79695 12960 ft 307 kts 195°
2026-05-07 14:18 37.52788 -7.80389 12626 ft 305 kts 196°
2026-05-07 14:18 37.50743 -7.81075 12297 ft 302 kts 195°
2026-05-07 14:18 37.48720 -7.81751 11982 ft 300 kts 196°
2026-05-07 14:18 37.46710 -7.82424 11652 ft 297 kts 195°
2026-05-07 14:19 37.44738 -7.83085 11348 ft 295 kts 195°
2026-05-07 14:19 37.42732 -7.83633 11001 ft 294 kts 183°
2026-05-07 14:19 37.40714 -7.83246 10643 ft 296 kts 160°
2026-05-07 14:19 37.38873 -7.82109 10369 ft 293 kts 154°
2026-05-07 14:20 37.37090 -7.80941 10140 ft 288 kts 153°
2026-05-07 14:20 37.35919 -7.80164 10061 ft 282 kts 153°
2026-05-07 14:20 37.33637 -7.78638 9808 ft 275 kts 153°
2026-05-07 14:20 37.32526 -7.77888 9596 ft 274 kts 153°
2026-05-07 14:21 37.30849 -7.76756 9276 ft 273 kts 152°
2026-05-07 14:21 37.29185 -7.75628 8990 ft 271 kts 152°
2026-05-07 14:21 37.27527 -7.74505 8676 ft 270 kts 153°
2026-05-07 14:21 37.25881 -7.73389 8407 ft 267 kts 152°
2026-05-07 14:22 37.23703 -7.71915 8046 ft 272 kts 153°
2026-05-07 14:22 37.22569 -7.71148 7847 ft 275 kts 153°
2026-05-07 14:22 37.20877 -7.70002 7532 ft 277 kts 152°
2026-05-07 14:22 37.19175 -7.68851 7258 ft 278 kts 152°
2026-05-07 14:23 37.17474 -7.67700 6968 ft 277 kts 151°
2026-05-07 14:23 37.15803 -7.66572 6668 ft 275 kts 151°
2026-05-07 14:23 37.14121 -7.65436 6380 ft 273 kts 151°
2026-05-07 14:23 37.12444 -7.64305 6070 ft 272 kts 151°
2026-05-07 14:24 37.10786 -7.63186 5769 ft 270 kts 151°
2026-05-07 14:24 37.09082 -7.62240 5455 ft 268 kts 168°
2026-05-07 14:24 37.07251 -7.62283 5252 ft 262 kts 195°
2026-05-07 14:24 37.05593 -7.63071 5135 ft 253 kts 202°
2026-05-07 14:25 37.03998 -7.63903 5024 ft 244 kts 202°
2026-05-07 14:25 37.02464 -7.64720 4900 ft 235 kts 203°
2026-05-07 14:25 37.00995 -7.65510 4832 ft 223 kts 203°
2026-05-07 14:25 36.99584 -7.66276 4559 ft 221 kts 204°
2026-05-07 14:26 36.98377 -7.67404 4292 ft 217 kts 232°
2026-05-07 14:26 36.97827 -7.69093 4091 ft 209 kts 262°
2026-05-07 14:26 36.97858 -7.70856 3865 ft 202 kts 275°
2026-05-07 14:26 36.98058 -7.72576 3632 ft 196 kts 278°
2026-05-07 14:27 36.98280 -7.74235 3390 ft 191 kts 278°
2026-05-07 14:27 36.98505 -7.75842 3158 ft 185 kts 277°
2026-05-07 14:27 36.98721 -7.77375 2916 ft 171 kts 277°
2026-05-07 14:27 36.98915 -7.78740 2802 ft 153 kts 277°
2026-05-07 14:28 36.99099 -7.80047 2584 ft 151 kts 277°
2026-05-07 14:28 36.99281 -7.81334 2361 ft 150 kts 276°
2026-05-07 14:28 36.99459 -7.82603 2157 ft 149 kts 277°
2026-05-07 14:28 36.99641 -7.83878 1956 ft 148 kts 276°
2026-05-07 14:29 36.99820 -7.85144 1744 ft 147 kts 276°
2026-05-07 14:29 36.99998 -7.86406 1545 ft 147 kts 277°
2026-05-07 14:29 37.00177 -7.87669 1353 ft 147 kts 276°
2026-05-07 14:29 37.00350 -7.88929 1145 ft 147 kts 276°
2026-05-07 14:30 37.00528 -7.90190 936 ft 146 kts 277°
2026-05-07 14:30 37.00706 -7.91414 743 ft 144 kts 277°
2026-05-07 14:30 37.00891 -7.92630 555 ft 141 kts 277°
2026-05-07 14:30 37.01058 -7.93825 372 ft 140 kts 275°
2026-05-07 14:31 37.01218 -7.95021 218 ft 137 kts 274°
2026-05-07 14:31 37.01388 -7.96177 36 ft 131 kts 278°
2026-05-07 14:31 37.01514 -7.97091 27 ft 73 kts 279°
2026-05-07 14:31 37.01576 -7.97537 22 ft 35 kts 279°
2026-05-07 14:32 37.01611 -7.97787 22 ft 29 kts 280°
2026-05-07 14:32 37.01697 -7.97842 24 ft 15 kts 29°
2026-05-07 14:32 37.01752 -7.97742 25 ft 0 kts 66°
2026-05-07 14:34 37.01753 -7.97741 25 ft 1 kts 66°
2026-05-07 14:34 37.01762 -7.97715 24 ft 6 kts 66°
2026-05-07 14:34 37.01776 -7.97633 23 ft 13 kts 98°
2026-05-07 14:34 37.01756 -7.97491 26 ft 16 kts 100°
2026-05-07 14:35 37.01769 -7.97441 24 ft 5 kts 36°
2026-05-07 14:35 37.01820 -7.97391 23 ft 13 kts 38°
2026-05-07 14:35 37.01845 -7.97354 23 ft 0 kts 88°
2026-05-07 14:35 37.01842 -7.97311 26 ft 10 kts 98°
2026-05-07 14:36 37.01824 -7.97183 24 ft 20 kts 100°
2026-05-07 14:36 37.01801 -7.97006 23 ft 20 kts 99°
2026-05-07 14:36 37.01812 -7.96875 23 ft 13 kts 32°
2026-05-07 14:36 37.01900 -7.96851 22 ft 8 kts
2026-05-07 14:37 37.01914 -7.96848 22 ft 0 kts 10°